Location: Newark
(15.4608°S, 41.1635°W)
Time: 10:41:12
(UTC+00:00)

Vanguard 3 - Pass Details

Date: 02 August 2021
Orbit: 510 x 3260 km, 33.3° (Epoch: 22 September)

Event Time Altitude Azimuth Distance (km) Brightness Sun altitude
Rises 14:17:28 0° 234° (SW) 2,691 9.6 55.9°
Reaches altitude 10° 14:19:25 10° 230° (SW) 1,896 8.9 56.0°
Maximum altitude 14:23:33 63° 147° (SSE) 808 7.8 56.3°
Drops below altitude 10° 14:29:54 10° 67° (ENE) 2,883 10.4 56.5°
Sets 14:33:28 0° 64° (ENE) 4,268 11.1 56.7°
